FW1286 Weather Reports


time (UTC)temp
F
wind
direction
speed
knots
gust
knots
rain 1hr
in
rain 24hr
in
rain mn
in
humidity
%
barometer
mb
20260509224147 89 265 0.9 3.5 0.00 0.56 0.57 60 1006.8
20260509223121 88 265 1.7 3.5 0.00 0.56 0.57 59 1006.9
20260509222134 89 265 1.7 5.2 0.00 0.56 0.57 59 1006.9
20260509221149 89 203 0.9 5.2 0.00 0.56 0.57 58 1006.9
20260509220141 89 203 0.9 4.3 0.00 0.56 0.57 59 1007.0
20260509215135 89 38 0.0 4.3 0.00 0.56 0.57 60 1007.2
20260509214129 88 74 1.7 4.3 0.00 0.56 0.57 59 1007.2
20260509213059 89 31 0.9 4.3 0.00 0.56 0.57 59 1007.4
20260509212104 88 16 0.9 3.5 0.00 0.56 0.57 58 1007.4
20260509211035 88 78 1.7 4.3 0.00 0.56 0.57 59 1007.5
20260509210056 88 67 0.9 4.3 0.00 0.56 0.57 59 1007.6
20260509205027 88 236 0.9 5.2 0.00 0.56 0.57 59 1007.8
20260509204049 87 236 1.7 5.2 0.00 0.56 0.57 58 1008.0
20260509203018 87 51 0.9 5.2 0.00 0.56 0.57 57 1008.3
20260509201945 86 115 2.6 5.2 0.00 0.56 0.57 58 1008.5
20260509200925 86 9 1.7 4.3 0.00 0.56 0.57 56 1008.5
20260509195859 86 10 1.7 4.3 0.00 0.56 0.57 53 1008.6
20260509194904 85 28 1.7 5.2 0.00 0.56 0.57 58 1008.7
20260509193839 84 80 1.7 5.2 0.00 0.56 0.57 58 1008.9
20260509192821 83 71 0.9 3.5 0.00 0.56 0.57 62 1008.9
20260509191832 82 21 0.9 3.5 0.00 0.56 0.57 66 1009.1
20260509190802 79 40 0.9 3.5 0.00 0.56 0.57 73 1009.3
20260509184637 74 65 1.7 4.3 0.00 0.56 0.57 93 1009.5
20260509183653 74 38 0.9 3.5 0.00 0.56 0.57 96 1009.6
20260509182621 73 355 0.9 3.5 0.00 0.56 0.57 95 1009.9
20260509181634 71 146 0.0 0.9 0.00 0.56 0.57 91 1010.0
20260509180623 71 102 0.9 6.1 0.00 0.55 0.55 92 1010.4
20260509175622 70 121 1.7 15.6 0.06 0.55 0.55 91 1010.5
20260509173440 78 29 2.6 7.8 2.15 0.19 0.21 86 1010.7
20260509172430 81 67 1.7 6.1 0.00 0.00 0.00 79 1010.3
20260509171408 82 111 0.9 5.2 0.00 0.00 0.00 76 1010.2
20260509170335 83 188 0.9 6.1 0.00 0.00 0.00 71 1010.2
20260509165317 84 190 2.6 6.1 0.00 0.00 0.00 70 1010.2
20260509164300 83 171 2.6 6.1 0.00 0.00 0.00 72 1010.4
20260509163316 83 104 2.6 7.8 0.00 0.00 0.00 73 1010.4
20260509162330 83 215 2.6 7.8 0.00 0.00 0.00 72 1010.3
20260509161338 83 230 0.9 5.2 0.00 0.00 0.00 73 1010.2
20260509160318 82 165 2.6 5.2 0.00 0.00 0.00 73 1010.2
20260509152945 81 338 2.6 7.0 0.00 0.00 0.00 79 1010.1
20260509151918 80 181 4.3 11.3 0.00 0.00 0.00 80 1009.7
20260509150847 80 194 6.1 11.3 0.00 0.00 0.00 81 1009.5
20260509145842 79 194 5.2 8.7 0.00 0.00 0.00 83 1009.8
20260509144815 78 185 5.2 8.7 0.00 0.00 0.00 84 1010.1
20260509143827 77 192 4.3 9.6 0.00 0.00 0.00 87 1009.7
20260509142845 77 136 5.2 9.6 0.00 0.00 0.00 89 1009.4
20260509141833 75 173 2.6 6.1 0.00 0.00 0.00 91 1009.5
20260509140841 75 189 3.5 7.0 0.00 0.00 0.00 93 1009.6
20260509134731 72 150 3.5 7.0 0.00 0.00 0.00 97 1009.7
20260509133744 71 168 1.7 5.2 0.00 0.00 0.00 98 1009.4
20260509132742 70 127 1.7 5.2 0.00 0.00 0.00 98 1009.2
20260509131749 70 167 1.7 5.2 0.00 0.00 0.00 97 1008.9
20260509130743 69 140 1.7 5.2 0.00 0.00 0.00 97 1008.9
20260509125721 69 121 2.6 5.2 0.00 0.00 0.00 97 1009.0
20260509124741 69 126 0.9 4.3 0.00 0.00 0.00 97 1009.3
20260509123744 69 177 0.9 3.5 0.00 0.00 0.00 97 1009.4
20260509122752 69 129 0.9 3.5 0.00 0.00 0.00 97 1009.2
20260509121801 68 155 0.0 2.6 0.00 0.00 0.00 97 1009.6
20260509120744 68 135 0.0 2.6 0.00 0.00 0.00 96 1009.5
20260509115745 68 136 0.0 5.2 0.00 0.00 0.00 96 1009.6
20260509114717 68 136 0.9 2.6 0.00 0.00 0.00 96 1009.6
20260509112514 69 267 0.9 0.0 0.00 0.00 0.00 96 1010.3
20260509111445 70 267 1.7 5.2 0.00 0.00 0.00 96 1010.9
20260509105308 70 302 0.9 3.5 0.00 0.00 0.00 96 1011.2
20260509104244 71 324 0.9 3.5 0.00 0.00 0.00 96 1011.1
20260509103257 71 324 0.9 0.0 0.00 0.00 0.00 96 1011.3
20260509101153 71 306 0.0 0.0 0.00 0.00 0.00 96 1010.8
20260509100143 71 306 0.0 1.7 0.00 0.00 0.00 96 1010.9
20260509095159 71 306 0.0 0.9 0.00 0.01 0.00 96 1010.6
20260509094210 71 306 0.0 0.9 0.00 0.02 0.00 96 1010.4
20260509093143 71 306 0.9 5.2 0.00 0.02 0.00 96 1010.1
20260509092115 71 300 1.7 5.2 0.00 0.02 0.00 96 1010.1
20260509091135 71 165 0.0 0.9 0.00 0.02 0.00 95 1009.7
20260509090116 71 165 0.0 0.0 0.00 0.02 0.00 95 1009.6
20260509085135 71 165 0.0 0.0 0.00 0.02 0.00 95 1009.7
20260509084120 72 165 0.0 0.0 0.00 0.02 0.00 95 1009.8
20260509083141 72 110 0.0 3.5 0.00 0.02 0.00 95 1009.8
20260509082128 71 145 0.0 2.6 0.00 0.02 0.00 95 1010.0
20260509081130 71 37 0.0 0.0 0.00 0.02 0.00 95 1010.1
20260509080145 71 37 0.0 0.0 0.00 0.02 0.00 94 1010.0
20260509075125 71 37 0.0 0.0 0.00 0.02 0.00 94 1010.2
20260509074121 72 37 0.0 0.0 0.00 0.02 0.00 95 1010.5
20260509073118 72 37 0.0 0.0 0.00 0.02 0.00 95 1010.6
20260509072046 72 37 0.0 0.0 0.00 0.02 0.00 94 1010.8
20260509065912 72 37 0.0 0.0 0.00 0.02 0.00 94 1010.3
20260509064936 72 37 0.0 0.0 0.00 0.02 0.00 94 1010.4
20260509063951 72 37 0.0 0.0 0.00 0.02 0.00 94 1010.4
20260509063002 72 37 0.0 0.0 0.00 0.02 0.00 94 1010.7
20260509062018 72 37 0.0 0.0 0.00 0.02 0.00 94 1010.9
20260509061010 72 37 0.0 0.0 0.00 0.02 0.00 94 1010.5
20260509054834 72 37 0.0 0.0 0.00 0.02 0.00 93 1010.7
20260509053828 72 37 0.0 0.0 0.00 0.02 0.00 93 1010.2
20260509052815 72 37 0.0 0.9 0.00 0.02 0.00 93 1009.6
20260509051806 72 37 0.0 0.0 0.00 0.02 0.00 93 1009.2
20260509050733 72 37 0.0 0.0 0.00 0.02 0.00 93 1009.1
20260509045701 72 37 0.0 0.0 0.00 0.02 0.02 93 1008.9
20260509044651 72 69 0.0 4.3 0.00 0.02 0.02 92 1008.9
20260509043638 72 116 0.0 4.3 0.00 0.02 0.02 92 1009.2
20260509042613 72 93 0.9 4.3 0.00 0.02 0.02 92 1009.4
20260509040441 72 108 0.9 3.5 0.00 0.02 0.02 93 1009.6
20260509035425 72 117 0.9 3.5 0.00 0.02 0.02 93 1009.6
20260509034424 72 123 0.0 3.5 0.00 0.02 0.02 93 1009.5
20260509033357 72 83 0.9 3.5 0.00 0.02 0.02 93 1009.5
20260509031233 72 76 1.7 5.2 0.00 0.02 0.02 93 1009.2
20260509030237 72 66 0.9 5.2 0.00 0.02 0.02 93 1009.1
20260509025239 72 97 1.7 5.2 0.00 0.02 0.02 93 1008.9
20260509023054 71 73 1.7 5.2 0.00 0.02 0.02 92 1008.9
20260509022103 71 84 0.9 5.2 0.00 0.02 0.02 92 1008.8
20260509021111 72 49 0.9 4.3 0.00 0.02 0.02 92 1008.6
20260509015027 72 29 1.7 5.2 0.00 0.02 0.02 91 1008.6
20260509012956 72 40 0.0 3.5 0.00 0.02 0.02 90 1008.4
20260509012020 73 45 0.9 3.5 0.00 0.02 0.02 90 1008.3
20260509010950 73 26 0.9 4.3 0.00 0.02 0.02 89 1008.3
20260509004815 74 53 2.6 7.0 0.00 0.02 0.02 88 1008.0
20260509002646 74 38 2.6 6.1 0.00 0.02 0.02 87 1008.4
20260509001636 74 36 1.7 6.1 0.00 0.02 0.02 87 1008.4
20260509000621 74 78 2.6 6.1 0.00 0.02 0.02 86 1008.4
20260508235609 75 39 1.7 5.2 0.00 0.02 0.02 86 1008.4
20260508234613 75 63 1.7 6.1 0.00 0.02 0.02 86 1008.4
20260508233637 75 80 1.7 6.1 0.00 0.02 0.02 85 1008.5
20260508232642 75 43 1.7 6.1 0.00 0.02 0.02 85 1008.5
20260508231608 75 70 2.6 6.1 0.00 0.02 0.02 85 1008.4
20260508230632 75 47 1.7 6.1 0.00 0.02 0.02 84 1008.5